Location: Unspecified
(25.7098°N, 0.0000°E)
Time: 09:41:12
(UTC+00:00)

STRAND 1 - Visible Passes

Search period start: 04 April 2026 00:00
Search period end: 14 April 2026 00:00
Orbit: 761 x 775 km, 98.4° (Epoch: 28 March)

Date Brightness Start Highest point End Pass type
(mag) Time Alt. Az. Time Alt. Az. Time Alt. Az.
4 Apr ? 04:31:41 10° SE 04:36:02 30° ENE 04:40:24 10° NNE visible
5 Apr ? 03:58:31 10° E 04:00:26 12° ENE 04:02:20 10° NE visible
6 Apr ? 04:58:05 10° SSE 05:03:04 60° ENE 05:08:02 10° N visible
6 Apr ? 18:56:17 10° NNW 18:59:16 16° WNW 19:02:16 10° WSW visible
7 Apr ? 04:23:18 10° SE 04:27:19 24° ENE 04:31:20 10° NNE visible
9 Apr ? 04:49:28 10° SSE 04:54:19 48° ENE 04:59:10 10° N visible
9 Apr ? 18:46:59 10° NNW 18:50:34 20° WNW 18:54:10 10° WSW visible
10 Apr ? 04:15:03 10° ESE 04:18:37 20° ENE 04:22:10 10° NNE visible
11 Apr ? 05:16:19 10° S 05:21:23 84° WSW 05:26:28 10° NNW visible
12 Apr ? 04:40:55 10° SE 04:45:34 38° ENE 04:50:13 10° N visible
13 Apr ? 04:06:57 10° ESE 04:09:54 16° ENE 04:12:51 10° NNE visible
